Miscellaneous Local Product
Issued by NWS North Platte, NE

Home | Current Version | Previous Version | Text Only | Print | Product List | Glossary On
Versions: 1 2 3 4 5 6 7 8 9 10 11 12 13 14 15 16 17 18 19 20 21 22 23 24 25 26 27 28 29 30 31 32 33 34 35 36 37 38 39 40 41 42 43 44 45 46 47 48 49 50
000
AXUS43 KLBF 211310
MISLBF


WESTERN AND NORTH CENTRAL NEBRASKA HOURLY WEATHER ROUNDUP
NATIONAL WEATHER SERVICE NORTH PLATTE NE
700 AM CST SUN DEC 21 2014

***STATIONS NOT REPORTING VARIABLES SUCH AS SKY/WEATHER OR
PRESSURE ARE PROVIDED BY THE NEBRASKA DEPARTMENT OF
ROADS...RAWS...AND APRS NETWORKS...AND ARE NOT UNDER
NATIONAL WEATHER SERVICE QUALITY CONTROL***

...OBSERVATIONS IN AND NEAR THE EASTERN PANHANDLE OF NEBRASKA...

CITY           SKY/WX    TMP DP  RH WIND       PRES   REMARKS
PINE RIDGE     CLEAR     27  21  78 SW6       29.63F WCI  20
CHADRON        CLEAR     23  19  85 SE3       29.64F
ALLIANCE       PTCLDY    23  18  81 CALM      29.67F
SIDNEY         CLEAR     21  16  81 SW10      29.73F WCI  10
WHITECLAY        N/A     22  18  85 E8          N/A  WCI  13
CRESCENT LAKE    N/A     31  21  66 SW6         N/A  WCI  25
LISCO            N/A     26  19  76 CALM        N/A
BIG SPRINGS      N/A     20  18  91 CALM        N/A
$$

...OBSERVATIONS IN NORTH CENTRAL NEBRASKA...

CITY           SKY/WX    TMP DP  RH WIND       PRES   REMARKS
VALENTINE      CLEAR     21  18  88 CALM      29.68F
THEDFORD       MOCLDY    32  27  83 SW6       29.73F WCI  26
AINSWORTH      PTCLDY    30  25  81 SW13      29.70F WCI  20
O`NEILL        CLOUDY    28  28  99 S5        29.75S WCI  22
BROKEN BOW     CLOUDY    30  27  88 CALM      29.76F
BROWNLEE         N/A     28  24  86 S10         N/A  WCI  18
SPRINGVIEW       N/A     21  19  93 CALM        N/A
BREWSTER         N/A     32  28  86 CALM        N/A
ROSE             N/A     32  32 100 SE3         N/A
SARGENT          N/A     24  23  96 CALM        N/A
COMSTOCK         N/A     36  31  83 SW7         N/A  WCI  30
CHAMBERS         N/A     26  25  96 CALM        N/A
EWING            N/A     27  26  97 CALM        N/A
$$

...OBSERVATIONS IN SOUTHWEST NEBRASKA AND FAR NORTHEAST COLORADO...

CITY           SKY/WX    TMP DP  RH WIND       PRES   REMARKS
WRAY           FAIR      24  21  89 W6        29.76F WCI  17
HOLYOKE        FAIR      27  21  80 W9        29.75F WCI  17
IMPERIAL       CLEAR     26  22  84 CALM      29.75F
OGALLALA       CLEAR     19  18  96 W8        29.74F WCI   9
NORTH PLATTE   PTCLDY    22  19  89 CALM      29.75F
MCCOOK         MOCLDY    27  25  92 SW6       29.79S WCI  20
LEXINGTON      CLOUDY    31  30  94 S3        29.78F
PAXTON           N/A     25  23  91 CALM        N/A
BRADY            N/A     25  22  88 CALM        N/A
GOTHENBURG       N/A     30  27  88 CALM        N/A
CALLAWAY         N/A     33  28  81 CALM        N/A
$$

...NORTH PLATTE AREA...

CITY           SKY/WX    TMP DP  RH WIND       PRES   REMARKS
AIRPORT        PTCLDY    22  19  89 CALM      29.75F
DOWNTOWN         N/A     24  22  92 CALM        N/A
$$

...SOME WEATHER OBSERVATIONS FROM AROUND THE REGION...

CITY           SKY/WX    TMP DP  RH WIND       PRES   REMARKS
DENVER         MOCLDY    28  21  75 S12       29.73F WCI  18
LARAMIE        CLOUDY    30  21  69 S16       29.76S WCI  19
CHEYENNE       MOCLDY    38  19  46 W18       29.72F WCI  28
SCOTTSBLUFF    CLEAR     20  16  84 E7        29.69F WCI  11
RAPID CITY     CLEAR     23  19  85 CALM      29.56F
PIERRE         CLEAR     21  19  92 SE8       29.64F WCI  11
WINNER         FAIR      36  25  64 S8        29.67F WCI  30
SIOUX FALLS    FOG       32  32 100 S10       29.80F VSB 1   WCI  24
OMAHA          CLOUDY    37  35  92 S14       29.91F FOG     WCI  28
GRAND ISLAND   CLOUDY    31  31 100 S5        29.83F FOG     WCI  26
KANSAS CITY    CLOUDY    38  35  89 S10       30.04S WCI  31
WICHITA        CLOUDY    41  37  86 S13       30.00S
HAYS           CLOUDY    36  28  75 S9        29.88F WCI  29
LIBERAL        CLOUDY    37  34  87 S6        29.87S WCI  33
GOODLAND       CLEAR     28  25  88 SW6       29.79F WCI  22
$$



USA.gov is the U.S. government's official web portal to all federal, state and local government web resources and services.